Location: Gazon
(48.1318°N, 1.2708°W)
Time: 02:40:04
(UTC+00:00)

Cosmos 1833 Rocket - Pass Details

Date: 18 September 2020
Orbit: 831 x 841 km, 71.0° (Epoch: 29 October)

Event Time Altitude Azimuth Distance (km) Brightness Sun altitude
Rises 19:58:40 0° 337° (NNW) 3,407 6.6 -18.3°
Reaches altitude 10° 20:01:38 10° 351° (N) 2,469 5.6 -18.8°
Maximum altitude 20:06:08 24° 44° (NE) 1,697 4.1 -19.4°
Enters shadow 20:07:33 21° 66° (ENE) 1,788 4.0 -19.7°
